Find STARLINK-36242

NORAD ID: 70591 Constellation: starlink operational
LEOCIRCULAR

Live Position

Loading 3D Globe...

About STARLINK-36242

Description loading...

Upcoming Passes

Passes for default location (London). Set your location on the main map for personalized predictions.

Altitude History

Loading altitude history...

Two-Line Element Set

1 70591C 26099H 26122.85395833 -.00324900 00000+0 -39792-3 0 1225
2 70591 53.1634 22.7480 0005275 287.6848 334.7235 16.07389845 10
Epoch: May 2, 2026 • Age: 29 hours